| time (UTC) | temp C | wind direction | speed KPH | gust KPH | rain 1hr cm | rain 24hr cm | rain mn cm | humidity % | barometer mb |
| 20260505181117 | 14 | 270 | 4.8 | 6.4 | 0.00 | 0.00 | 0.00 | 59 | 1018.6 |
| 20260505180238 | 13 | 225 | 1.6 | 3.2 | 0.00 | 0.00 | 0.00 | 59 | 1018.5 |
| 20260505175117 | 13 | 180 | 1.6 | 3.2 | 0.00 | 0.00 | 0.00 | 59 | 1018.5 |
| 20260505174117 | 13 | 293 | 1.6 | 3.2 | 0.00 | 0.00 | 0.00 | 60 | 1018.6 |
| 20260505173117 | 13 | 158 | 3.2 | 3.2 | 0.00 | 0.00 | 0.00 | 60 | 1018.5 |
| 20260505172117 | 13 | 135 | 1.6 | 1.6 | 0.00 | 0.00 | 0.00 | 61 | 1018.4 |
| 20260505171117 | 13 | 135 | 3.2 | 4.8 | 0.00 | 0.00 | 0.00 | 61 | 1018.3 |
| 20260505170116 | 13 | 225 | 3.2 | 4.8 | 0.00 | 0.00 | 0.00 | 62 | 1018.3 |
| 20260505165116 | 12 | 113 | 1.6 | 3.2 | 0.00 | 0.00 | 0.00 | 64 | 1018.2 |
| 20260505164117 | 12 | 225 | 1.6 | 3.2 | 0.00 | 0.00 | 0.00 | 64 | 1018.2 |
| 20260505163117 | 12 | 135 | 4.8 | 4.8 | 0.00 | 0.00 | 0.00 | 64 | 1018.1 |
| 20260505162116 | 12 | 180 | 1.6 | 4.8 | 0.00 | 0.00 | 0.00 | 64 | 1018.0 |
| 20260505161116 | 12 | 225 | 1.6 | 3.2 | 0.00 | 0.00 | 0.00 | 65 | 1018.0 |
| 20260505160117 | 12 | 180 | 1.6 | 1.6 | 0.00 | 0.00 | 0.00 | 65 | 1017.9 |
| 20260505153116 | 12 | 225 | 3.2 | 4.8 | 0.00 | 0.00 | 0.00 | 65 | 1017.9 |
| 20260505152116 | 12 | 248 | 1.6 | 3.2 | 0.00 | 0.00 | 0.00 | 65 | 1017.8 |
| 20260505151117 | 12 | 225 | 1.6 | 3.2 | 0.00 | 0.00 | 0.00 | 65 | 1017.8 |
| 20260505150116 | 12 | 225 | 3.2 | 4.8 | 0.00 | 0.00 | 0.00 | 66 | 1017.7 |
| 20260505140116 | 11 | 158 | 3.2 | 6.4 | 0.00 | 0.00 | 0.00 | 66 | 1017.1 |
| 20260505130116 | 11 | 180 | 1.6 | 3.2 | 0.00 | 0.00 | 0.00 | 65 | 1016.8 |
| 20260505124116 | 11 | 158 | 1.6 | 3.2 | 0.00 | 0.00 | 0.00 | 65 | 1016.9 |
| 20260505123116 | 11 | 0.0 | 1.6 | 0.00 | 0.00 | 0.00 | 65 | 1016.8 | |
| 20260505122116 | 11 | 0.0 | 1.6 | 0.00 | 0.00 | 0.00 | 66 | 1016.8 | |
| 20260505121116 | 11 | 0.0 | 1.6 | 0.00 | 0.00 | 0.00 | 66 | 1016.7 | |
| 20260505120136 | 11 | 180 | 1.6 | 3.2 | 0.00 | 0.00 | 0.00 | 66 | 1016.7 |
| 20260505115115 | 11 | 180 | 1.6 | 3.2 | 0.00 | 0.00 | 0.00 | 66 | 1016.6 |
| 20260505114116 | 11 | 180 | 1.6 | 3.2 | 0.00 | 0.00 | 0.00 | 66 | 1016.7 |
| 20260505113116 | 11 | 0.0 | 1.6 | 0.00 | 0.00 | 0.00 | 67 | 1016.6 | |
| 20260505112116 | 11 | 180 | 1.6 | 1.6 | 0.00 | 0.00 | 0.00 | 67 | 1016.6 |
| 20260505111116 | 11 | 315 | 1.6 | 3.2 | 0.00 | 0.00 | 0.00 | 68 | 1016.6 |
| 20260505110115 | 11 | 0.0 | 0.0 | 0.00 | 0.00 | 0.00 | 68 | 1016.5 | |
| 20260505102115 | 11 | 0.0 | 1.6 | 0.00 | 0.00 | 0.00 | 68 | 1016.2 | |
| 20260505101116 | 11 | 293 | 1.6 | 3.2 | 0.00 | 0.00 | 0.00 | 68 | 1016.2 |
| 20260505100115 | 11 | 293 | 3.2 | 4.8 | 0.00 | 0.00 | 0.00 | 68 | 1016.2 |
| 20260505095116 | 11 | 270 | 3.2 | 4.8 | 0.00 | 0.00 | 0.00 | 68 | 1016.1 |
| 20260505094115 | 11 | 270 | 1.6 | 3.2 | 0.00 | 0.00 | 0.00 | 68 | 1016.1 |
| 20260505093116 | 11 | 270 | 3.2 | 4.8 | 0.00 | 0.00 | 0.00 | 68 | 1016.0 |
| 20260505092116 | 11 | 270 | 3.2 | 4.8 | 0.00 | 0.00 | 0.00 | 67 | 1015.9 |
| 20260505091116 | 11 | 293 | 1.6 | 3.2 | 0.00 | 0.00 | 0.00 | 67 | 1015.7 |
| 20260505090136 | 11 | 293 | 1.6 | 3.2 | 0.00 | 0.00 | 0.00 | 67 | 1015.6 |
| 20260505085116 | 11 | 293 | 3.2 | 4.8 | 0.00 | 0.00 | 0.00 | 66 | 1015.6 |
| 20260505084115 | 11 | 315 | 3.2 | 6.4 | 0.00 | 0.00 | 0.00 | 66 | 1015.5 |
| 20260505083116 | 12 | 293 | 3.2 | 6.4 | 0.00 | 0.00 | 0.00 | 66 | 1015.6 |
| 20260505082115 | 12 | 315 | 4.8 | 6.4 | 0.00 | 0.00 | 0.00 | 65 | 1015.5 |
| 20260505081117 | 12 | 293 | 3.2 | 6.4 | 0.00 | 0.00 | 0.00 | 66 | 1015.4 |
| 20260505080116 | 12 | 293 | 4.8 | 6.4 | 0.00 | 0.00 | 0.00 | 66 | 1015.4 |
| 20260505075117 | 12 | 293 | 6.4 | 8.0 | 0.00 | 0.00 | 0.00 | 66 | 1015.4 |
| 20260505074117 | 12 | 293 | 3.2 | 6.4 | 0.00 | 0.00 | 0.00 | 65 | 1015.3 |
| 20260505073117 | 12 | 270 | 3.2 | 4.8 | 0.00 | 0.00 | 0.00 | 65 | 1015.0 |
| 20260505072118 | 12 | 293 | 4.8 | 6.4 | 0.00 | 0.00 | 0.00 | 64 | 1014.9 |
| 20260505071118 | 12 | 293 | 4.8 | 6.4 | 0.00 | 0.00 | 0.00 | 64 | 1014.8 |
| 20260505070137 | 13 | 293 | 4.8 | 6.4 | 0.00 | 0.00 | 0.00 | 63 | 1014.7 |
| 20260505065116 | 13 | 293 | 4.8 | 6.4 | 0.00 | 0.00 | 0.00 | 63 | 1014.5 |
| 20260505064116 | 13 | 293 | 3.2 | 6.4 | 0.00 | 0.00 | 0.00 | 62 | 1014.3 |
| 20260505063136 | 13 | 293 | 3.2 | 4.8 | 0.00 | 0.00 | 0.00 | 61 | 1014.3 |
| 20260505062156 | 14 | 315 | 3.2 | 4.8 | 0.00 | 0.00 | 0.00 | 61 | 1014.3 |
| 20260505061116 | 14 | 293 | 3.2 | 8.0 | 0.00 | 0.00 | 0.00 | 60 | 1014.1 |
| 20260505060136 | 15 | 315 | 3.2 | 8.0 | 0.00 | 0.00 | 0.00 | 59 | 1014.1 |
| 20260505055115 | 15 | 315 | 6.4 | 12.9 | 0.00 | 0.00 | 0.00 | 58 | 1014.0 |
| 20260505054116 | 16 | 315 | 4.8 | 6.4 | 0.00 | 0.00 | 0.00 | 57 | 1014.0 |
| 20260505053116 | 16 | 315 | 6.4 | 11.3 | 0.00 | 0.00 | 0.00 | 56 | 1014.1 |
| 20260505052115 | 16 | 315 | 8.0 | 12.9 | 0.00 | 0.00 | 0.00 | 55 | 1013.9 |
| 20260505051136 | 17 | 293 | 8.0 | 12.9 | 0.00 | 0.00 | 0.00 | 54 | 1013.9 |
| 20260505050136 | 17 | 315 | 6.4 | 11.3 | 0.00 | 0.00 | 0.00 | 53 | 1013.8 |
| 20260505041115 | 18 | 270 | 6.4 | 9.7 | 0.00 | 0.00 | 0.00 | 50 | 1013.3 |
| 20260505040116 | 19 | 270 | 3.2 | 4.8 | 0.00 | 0.00 | 0.00 | 54 | 1013.1 |
| 20260505035115 | 19 | 315 | 1.6 | 3.2 | 0.00 | 0.00 | 0.00 | 55 | 1012.9 |
| 20260505034115 | 19 | 338 | 3.2 | 4.8 | 0.00 | 0.00 | 0.00 | 55 | 1012.7 |
| 20260505033115 | 20 | 113 | 3.2 | 3.2 | 0.00 | 0.00 | 0.00 | 54 | 1012.5 |
| 20260505032116 | 20 | 203 | 1.6 | 3.2 | 0.00 | 0.00 | 0.00 | 53 | 1012.3 |
| 20260505031115 | 20 | 158 | 3.2 | 6.4 | 0.00 | 0.00 | 0.00 | 52 | 1012.3 |
| 20260505030115 | 20 | 180 | 1.6 | 3.2 | 0.00 | 0.00 | 0.00 | 51 | 1012.1 |
| 20260505025115 | 21 | 225 | 3.2 | 4.8 | 0.00 | 0.00 | 0.00 | 50 | 1012.1 |
| 20260505024156 | 21 | 203 | 1.6 | 9.7 | 0.00 | 0.00 | 0.00 | 49 | 1012.0 |
| 20260505023115 | 21 | 293 | 3.2 | 6.4 | 0.00 | 0.00 | 0.00 | 49 | 1012.1 |
| 20260505022118 | 21 | 180 | 1.6 | 3.2 | 0.00 | 0.00 | 0.00 | 48 | 1012.1 |
| 20260505021118 | 21 | 248 | 3.2 | 4.8 | 0.00 | 0.00 | 0.00 | 47 | 1012.1 |
| 20260505020138 | 22 | 225 | 3.2 | 6.4 | 0.00 | 0.00 | 0.00 | 47 | 1012.1 |
| 20260505015117 | 22 | 180 | 3.2 | 6.4 | 0.00 | 0.00 | 0.00 | 46 | 1012.2 |
| 20260505014117 | 22 | 135 | 4.8 | 8.0 | 0.00 | 0.00 | 0.00 | 45 | 1012.1 |
| 20260505013118 | 23 | 270 | 3.2 | 4.8 | 0.00 | 0.00 | 0.00 | 43 | 1012.3 |
| 20260505012117 | 23 | 248 | 3.2 | 6.4 | 0.00 | 0.00 | 0.00 | 42 | 1012.4 |
| 20260505011117 | 23 | 203 | 3.2 | 8.0 | 0.00 | 0.00 | 0.00 | 41 | 1012.6 |
| 20260505010117 | 23 | 270 | 4.8 | 9.7 | 0.00 | 0.00 | 0.00 | 40 | 1012.5 |
| 20260505005137 | 23 | 248 | 6.4 | 9.7 | 0.00 | 0.00 | 0.00 | 41 | 1012.6 |
| 20260505004117 | 23 | 158 | 4.8 | 8.0 | 0.00 | 0.00 | 0.00 | 41 | 1012.6 |
| 20260505003137 | 23 | 225 | 3.2 | 4.8 | 0.00 | 0.00 | 0.00 | 40 | 1012.6 |
| 20260505002117 | 23 | 180 | 3.2 | 4.8 | 0.00 | 0.00 | 0.00 | 39 | 1012.6 |
| 20260505001117 | 24 | 180 | 4.8 | 9.7 | 0.00 | 0.00 | 0.00 | 38 | 1012.7 |
| 20260505000138 | 23 | 315 | 3.2 | 6.4 | 0.00 | 0.00 | 0.00 | 40 | 1012.7 |
| 20260504235117 | 23 | 270 | 3.2 | 9.7 | 0.00 | 0.00 | 0.00 | 40 | 1012.8 |
| 20260504234117 | 23 | 248 | 4.8 | 8.0 | 0.00 | 0.00 | 0.00 | 41 | 1012.8 |
| 20260504233137 | 22 | 248 | 9.7 | 14.5 | 0.00 | 0.00 | 0.00 | 42 | 1012.8 |
| 20260504232117 | 23 | 225 | 6.4 | 8.0 | 0.00 | 0.00 | 0.00 | 40 | 1012.9 |
| 20260504231117 | 23 | 248 | 8.0 | 12.9 | 0.00 | 0.00 | 0.00 | 40 | 1013.0 |
| 20260504230137 | 23 | 248 | 11.3 | 16.1 | 0.00 | 0.00 | 0.00 | 40 | 1013.1 |
| 20260504225219 | 22 | 225 | 4.8 | 9.7 | 0.00 | 0.00 | 0.00 | 40 | 1013.2 |
| 20260504224117 | 22 | 158 | 3.2 | 6.4 | 0.00 | 0.00 | 0.00 | 41 | 1013.4 |
| 20260504223137 | 22 | 270 | 8.0 | 9.7 | 0.00 | 0.00 | 0.00 | 41 | 1013.4 |
| 20260504222117 | 22 | 270 | 9.7 | 14.5 | 0.00 | 0.00 | 0.00 | 43 | 1013.6 |
| 20260504221117 | 21 | 248 | 6.4 | 11.3 | 0.00 | 0.00 | 0.00 | 44 | 1013.7 |
| 20260504220117 | 21 | 270 | 4.8 | 6.4 | 0.00 | 0.00 | 0.00 | 45 | 1013.8 |
| 20260504215137 | 21 | 225 | 4.8 | 8.0 | 0.00 | 0.00 | 0.00 | 43 | 1013.8 |
| 20260504214117 | 21 | 248 | 6.4 | 11.3 | 0.00 | 0.00 | 0.00 | 44 | 1013.9 |
| 20260504213117 | 21 | 158 | 3.2 | 8.0 | 0.00 | 0.00 | 0.00 | 44 | 1014.0 |
| 20260504212117 | 20 | 248 | 6.4 | 11.3 | 0.00 | 0.00 | 0.00 | 45 | 1014.0 |
| 20260504211137 | 20 | 248 | 4.8 | 8.0 | 0.00 | 0.00 | 0.00 | 45 | 1014.1 |
| 20260504210116 | 20 | 158 | 4.8 | 6.4 | 0.00 | 0.00 | 0.00 | 46 | 1014.3 |
| 20260504205138 | 20 | 203 | 4.8 | 6.4 | 0.00 | 0.00 | 0.00 | 46 | 1014.4 |
| 20260504204137 | 20 | 135 | 4.8 | 8.0 | 0.00 | 0.00 | 0.00 | 47 | 1014.5 |
| 20260504203117 | 20 | 270 | 3.2 | 6.4 | 0.00 | 0.00 | 0.00 | 49 | 1014.6 |
| 20260504202117 | 19 | 0.0 | 1.6 | 0.00 | 0.00 | 0.00 | 50 | 1014.5 | |
| 20260504201117 | 19 | 248 | 1.6 | 3.2 | 0.00 | 0.00 | 0.00 | 49 | 1014.7 |
| 20260504200116 | 18 | 248 | 4.8 | 8.0 | 0.00 | 0.00 | 0.00 | 50 | 1014.8 |
| 20260504195116 | 18 | 203 | 1.6 | 3.2 | 0.00 | 0.00 | 0.00 | 49 | 1014.9 |
| 20260504194116 | 18 | 203 | 4.8 | 6.4 | 0.00 | 0.00 | 0.00 | 52 | 1014.9 |
| 20260504193117 | 17 | 203 | 3.2 | 6.4 | 0.00 | 0.00 | 0.00 | 52 | 1014.9 |
| 20260504192116 | 17 | 270 | 4.8 | 11.3 | 0.00 | 0.00 | 0.00 | 53 | 1015.0 |
| 20260504191138 | 17 | 248 | 6.4 | 12.9 | 0.00 | 0.00 | 0.00 | 53 | 1015.1 |
| 20260504190116 | 17 | 225 | 4.8 | 8.0 | 0.00 | 0.00 | 0.00 | 54 | 1015.1 |
| 20260504185117 | 16 | 225 | 3.2 | 4.8 | 0.00 | 0.00 | 0.00 | 57 | 1015.1 |
| 20260504184137 | 15 | 270 | 8.0 | 11.3 | 0.00 | 0.00 | 0.00 | 58 | 1015.3 |
| 20260504183117 | 15 | 113 | 4.8 | 6.4 | 0.00 | 0.00 | 0.00 | 57 | 1015.2 |
| 20260504182117 | 15 | 203 | 1.6 | 3.2 | 0.00 | 0.00 | 0.00 | 58 | 1015.2 |